Location: Normandy Village
(37.8755°N, 122.2655°W)
Time: 00:08:45
(UTC+00:00)

Okean O Rocket - Pass Details

Date: 22 September 2019
Orbit: 623 x 644 km, 98.2° (Epoch: 22 October)

Event Time Altitude Azimuth Distance (km) Brightness Sun altitude
Rises 12:59:58 0° 22° (NNE) 2,962 5.5 -12.0°
Reaches altitude 10° 13:02:20 10° 31° (NNE) 2,047 4.8 -11.5°
Maximum altitude 13:06:28 36° 98° (E) 1,015 3.4 -10.7°
Drops below altitude 10° 13:10:33 10° 166° (SSE) 2,028 4.3 -9.9°
Sets 13:12:52 0° 174° (S) 2,930 5.0 -9.5°
